Location: Albany
(35.0170°S, 117.8920°E)
Time: 05:10:20
(UTC+08:00)

Explorer 11/Cluster Stage 4 - Visible Passes

Search period start: 22 January 2021 00:00
Search period end: 01 February 2021 00:00
Orbit: 467 x 1258 km, 28.8° (Epoch: 21 January)

Date Brightness Start Highest point End Pass type
(mag) Time Alt. Az. Time Alt. Az. Time Alt. Az.
28 Jan 9.4 04:28:15 10° N 04:31:08 12° NNE 04:33:54 10° NE visible
29 Jan 9.3 04:15:49 10° N 04:20:00 15° NNE 04:23:58 10° ENE visible
30 Jan 9.1 04:03:47 10° NNW 04:08:51 18° NNE 04:13:38 10° ENE visible
31 Jan 9.0 03:53:12 13° NNW 03:57:40 21° NNE 04:03:07 10° ENE visible
